Weather in Lanchkhuti

Georgia     42°05′17″N   42°02′17″E
temp.,
°C
wind,
m/s
gust,
m/s
humid.,
%
clouds,
%
prec.,
mm/h
press.,
hPa
HPBL,
m
17 april, sat
sat1701:00+10s1190100 0.0 102134
04:00+9sse119497 0.0 102236
07:00+9sw119194 0.0 102228
10:00+14wsw116998 0.0 1022517
13:00+17w4360100 0.0 1021879
16:00+15wsw456482 0.0 1021728
19:00+13e2577100 0.0 1020256
22:00+12ene3783100 0.0 1020197
18 april, sun
sun1801:00+11sw2491100 0.0 1021188
04:00+11ene3890100 0.5 1019203
07:00+13ne2685100 0.0 1016148
10:00+19ne4767100 0.2 1015268
13:00+23ene3553100 0.1 1014324
16:00+21ne2572100 0.2 1016199
19:00+17ssw0185100 0.6 101817
22:00+15ene1188100 0.9 101912
19 april, mon
mon1901:00+14ese2287100 0.1 101825
04:00+15ese2286100 0.7 101823
07:00+14ene248998 0.1 101784
10:00+21ne3666100 0.4 1016300
13:00+25ne3447100 0.0 1014501
16:00+27nne4542100 0.0 1012542
19:00+22e2266100 0.0 101234
22:00+19ene2558100 0.0 101194
20 april, tue
tue2001:00+20ene4952100 0.0 1008158
04:00+20ene3850100 0.0 1005208
07:00+20ene4852100 0.0 1004192
10:00+21ene51058100 0.0 1006254
13:00+16wsw61276100 0.1 1012560
16:00+16sw3480100 0.8 1012537
19:00+14n2395100 2.0 1014173
22:00+12w1298100 3.1 1016196
21 april, wed
wed2101:00+12sw3998100 1.6 1018611
04:00+11sw3893100 1.8 1019514
07:00+11sw1494100 0.0 1019277
10:00+12wsw2390100 0.1 1019401
13:00+15nnw1174100 0.1 1018863
16:00+14wsw3475100 0.1 1018631
19:00+13wsw237699 0.0 1019554
22:00+10sw1496100 0.9 1021188